La Coruna Airport, Spain

7:45 AM CEST on April 26, 2017 (GMT +0200)
A Coruna

Weather History for LECO - November, 2012

Change the Weather History Date:

Monday, November 5, 2012

  Actual Average Record
Temperature  
Mean Temperature 52 °F -  
Max Temperature 57 °F 58 °F 73 °F (2006)
Min Temperature 46 °F 46 °F 37 °F (1998)
Degree Days  
Heating Degree Days 14    
Growing Degree Days 2 (Base 50)    
Moisture  
Dew Point 47 °F    
Average Humidity 84    
Maximum Humidity 100    
Minimum Humidity 72    
Precipitation  
Precipitation 0.00 in - - ()
Sea Level Pressure  
Sea Level Pressure 30.04 in    
Wind  
Wind Speed 7 mph ()    
Max Wind Speed 13 mph    
Max Gust Speed 21 mph    
Visibility 5.9 miles    
Events Fog , Rain    
Averages and records for this station are not official NWS values.
T = Trace of Precipitation, MM = Missing Value Source: Averaged Metar Reports

Daily Weather History Graph

Daily Weather History Graph

Search for Another Location

Airport or City:

Trip Planner

Search our weather history database for the weather conditions in past years. The results will help you decide how hot, cold, wet, or windy it might be!

Date:

Astronomy

Nov. 05, 2012 Rise Set
Actual Time 8:14 AM CET 6:19 PM CET
Civil Twilight 7:44 AM CET 6:49 PM CET
Nautical Twilight 7:10 AM CET 7:23 PM CET
Astronomical Twilight 6:36 AM CET 7:56 PM CET
Moon 11:43 PM CET (11/5) 1:26 PM CET (11/5)
Length of Visible Light 11h 05m
Length of Day
10h 05m
Waning Gibbous, 65% of the Moon is Illuminated
Nov 5
Waning Gibbous
Nov 7
Last Quarter
Nov 13
New
Nov 20
First Quarter
Nov 28
Full

Hourly Weather History & Observations

Time (CET) Temp. Windchill Dew Point Humidity Pressure Visibility Wind Dir Wind Speed Gust Speed Precip Events Conditions
12:00 AM 51.8 °F - 46.4 °F 82% 29.92 in 3.7 mi WSW 12.7 mph - N/A Rain Rain Showers
12:18 AM 50.0 °F - 46.4 °F 87% 29.92 in 6.2 mi SW 9.2 mph - N/A   Scattered Clouds
12:30 AM 50.0 °F - 46.4 °F 87% 29.92 in 6.2 mi SW 8.1 mph - N/A   Scattered Clouds
12:34 AM 50.0 °F - 46.4 °F 87% 29.92 in 2.5 mi SW 9.2 mph - N/A Rain Rain Showers
1:00 AM 50.0 °F - 46.4 °F 87% 29.92 in 6.2 mi SW 8.1 mph - N/A   Scattered Clouds
5:30 AM 51.8 °F - 46.4 °F 82% 29.95 in 6.2 mi WSW 12.7 mph - N/A   Partly Cloudy
6:00 AM 51.8 °F - 46.4 °F 82% 29.95 in 6.2 mi WSW 11.5 mph - N/A   Scattered Clouds
6:30 AM 51.8 °F - 46.4 °F 82% 29.95 in 6.2 mi WSW 11.5 mph - N/A   Scattered Clouds
7:00 AM 51.8 °F - 46.4 °F 82% 29.98 in 6.2 mi Variable 2.3 mph - N/A   Scattered Clouds
7:30 AM 50.0 °F - 46.4 °F 87% 29.98 in 6.2 mi SW 4.6 mph - N/A   Scattered Clouds
8:00 AM 50.0 °F - 46.4 °F 87% 29.98 in 6.2 mi SW 9.2 mph - N/A   Partly Cloudy
8:21 AM 50.0 °F - 46.4 °F 87% 29.98 in 6.2 mi South 3.5 mph - N/A Rain Rain Showers
8:24 AM 50.0 °F - 46.4 °F 87% 29.98 in 6.2 mi West 12.7 mph - N/A Rain Rain Showers
8:30 AM 51.8 °F - 46.4 °F 82% 29.98 in 6.2 mi West 10.4 mph - N/A Rain Rain Showers
8:37 AM 51.8 °F - 46.4 °F 82% 29.98 in 6.2 mi West 6.9 mph - N/A   Scattered Clouds
9:00 AM 50.0 °F - 46.4 °F 87% 29.98 in 6.2 mi SW 6.9 mph - N/A   Scattered Clouds
9:30 AM 51.8 °F - 48.2 °F 88% 30.01 in 6.2 mi SW 5.8 mph - N/A   Scattered Clouds
10:00 AM 53.6 °F - 48.2 °F 82% 30.01 in 6.2 mi SW 8.1 mph - N/A   Scattered Clouds
10:30 AM 55.4 °F - 50.0 °F 82% 30.01 in 6.2 mi SW 4.6 mph - N/A   Scattered Clouds
11:00 AM 57.2 °F - 50.0 °F 77% 30.04 in 6.2 mi SSW 5.8 mph - N/A Rain Rain Showers
11:06 AM 55.4 °F - 48.2 °F 77% 30.04 in 6.2 mi SSW 6.9 mph - N/A Rain Rain Showers
11:17 AM 53.6 °F - 46.4 °F 77% 30.04 in 6.2 mi West 10.4 mph - N/A   Scattered Clouds
11:30 AM 53.6 °F - 46.4 °F 77% 30.04 in 6.2 mi West 9.2 mph - N/A   Scattered Clouds
12:30 PM 55.4 °F - 48.2 °F 77% 30.04 in 6.2 mi SW 6.9 mph - N/A   Scattered Clouds
1:00 PM 57.2 °F - 50.0 °F 77% 30.04 in 6.2 mi WSW 5.8 mph - N/A   Scattered Clouds
1:30 PM 57.2 °F - 48.2 °F 72% 30.04 in 6.2 mi WNW 10.4 mph - N/A Rain Rain Showers
1:35 PM 57.2 °F - 50.0 °F 77% 30.04 in 6.2 mi WNW 10.4 mph - N/A Rain Rain Showers
1:45 PM 55.4 °F - 48.2 °F 77% 30.04 in 6.2 mi West 9.2 mph - N/A   Scattered Clouds
2:00 PM 53.6 °F - 48.2 °F 82% 30.06 in 6.2 mi West 10.4 mph - N/A   Scattered Clouds
2:30 PM 55.4 °F - 50.0 °F 82% 30.04 in 6.2 mi WSW 8.1 mph - N/A   Scattered Clouds
3:00 PM 55.4 °F - 48.2 °F 77% 30.06 in 6.2 mi WNW 6.9 mph - N/A Rain Rain Showers
3:16 PM 53.6 °F - 46.4 °F 77% 30.06 in 6.2 mi WSW 8.1 mph - N/A   Scattered Clouds
3:30 PM 53.6 °F - 46.4 °F 77% 30.06 in 6.2 mi WSW 8.1 mph - N/A   Scattered Clouds
4:00 PM 53.6 °F - 46.4 °F 77% 30.06 in 6.2 mi West 9.2 mph - N/A   Scattered Clouds
4:30 PM 55.4 °F - 48.2 °F 77% 30.06 in 6.2 mi WSW 6.9 mph 20.7 mph N/A Rain Light Rain Showers
5:00 PM 55.4 °F - 48.2 °F 77% 30.06 in 6.2 mi Variable 1.2 mph - N/A   Partly Cloudy
5:30 PM 53.6 °F - 48.2 °F 82% 30.06 in 6.2 mi WSW 4.6 mph - N/A   Partly Cloudy
5:41 PM 53.6 °F - 48.2 °F 82% 30.06 in 6.2 mi SW 5.8 mph - N/A   Scattered Clouds
6:00 PM 53.6 °F - 48.2 °F 82% 30.09 in 6.2 mi Variable 3.5 mph - N/A Rain Light Rain Showers
6:30 PM 51.8 °F - 44.6 °F 76% 30.09 in 6.2 mi Variable 1.2 mph - N/A   Scattered Clouds
7:00 PM 51.8 °F - 48.2 °F 88% 30.09 in 6.2 mi South 5.8 mph - N/A   Mostly Cloudy
7:30 PM 50.0 °F - 48.2 °F 94% 30.12 in 6.2 mi Variable 1.2 mph - N/A   Scattered Clouds
8:00 PM 50.0 °F - 46.4 °F 87% 30.12 in 6.2 mi SSW 3.5 mph - N/A   Scattered Clouds
8:30 PM 48.2 °F - 46.4 °F 93% 30.12 in 6.2 mi Variable 2.3 mph - N/A Rain Light Rain
9:00 PM 48.2 °F - 48.2 °F 100% 30.15 in 6.2 mi South 3.5 mph - N/A Rain Light Rain
9:18 PM 48.2 °F - 46.4 °F 93% 30.15 in 3.1 mi Variable 2.3 mph - N/A Fog Shallow Fog
9:19 PM 48.2 °F - 46.4 °F 93% 30.15 in 3.1 mi Variable 2.3 mph - N/A Fog Shallow Fog
9:30 PM 46.4 °F - 46.4 °F 100% 30.15 in 3.1 mi Variable 2.3 mph - N/A Fog Shallow Fog
10:00 PM 48.2 °F - 48.2 °F 100% 30.15 in 6.2 mi Calm Calm - N/A   Scattered Clouds
10:30 PM 48.2 °F - 46.4 °F 93% 30.15 in 6.2 mi SSW 3.5 mph - N/A   Scattered Clouds
11:00 PM 46.4 °F 45.2 °F 46.4 °F 100% 30.18 in 6.2 mi South 3.5 mph - N/A   Partly Cloudy
11:30 PM 46.4 °F - 44.6 °F 93% 30.18 in 6.2 mi Variable 2.3 mph - N/A Fog Shallow Fog